Weather Roundup
Issued by NWS Chicago, IL

Home | Current Version | Previous Version | Graphics & Text | Print | Product List | Glossary On
Versions: 1 2 3 4 5 6 7 8 9 10 11 12 13 14 15 16 17 18 19 20 21 22 23 24 25 26 27 28 29 30 31 32 33 34 35 36 37 38 39 40 41 42 43 44 45 46 47 48 49 50
000
NZUS59 KLOT 240808
HRRLOT

CHICAGO AREA WEATHER ROUNDUP
NATIONAL WEATHER SERVICE CHICAGO/ROMEOVILLE IL
300 AM CDT MON APR 24 2017

NOTE: "FAIR" INDICATES FEW OR NO CLOUDS BELOW 12,000 FEET WITH NO
SIGNIFICANT WEATHER AND/OR OBSTRUCTIONS TO VISIBILITY.

* THESE STATIONS ARE NOT UNDER NWS QUALITY CONTROL. THEY ALSO MAY NOT
  REPORT WEATHER SUCH AS PRECIPITATION OR FOG.

ILZ005-006-012>014-019>023-240900-
NORTHEAST ILLINOIS

CITY           SKY/WX    TMP DP  RH WIND       PRES   REMARKS
OHARE          PTCLDY    42  37  82 NE5       30.01F
MIDWAY         PTCLDY    44  39  82 N5        30.01F
AURORA         CLEAR     43  37  79 E5        30.00F
LANSING*       CLEAR     42  41  99 CALM      30.02S
JOLIET*        CLEAR     47  35  64 NE3       30.00F
WAUKEGAN       CLEAR     33  32  96 CALM      30.01F
DUPAGE AIRPORT CLEAR     38  37  97 NE5       30.00F
WHEELING       CLEAR     40  39  97 CALM      30.03F
KANKAKEE*      CLEAR     41  29  62 CALM      30.01F
MORRIS*        CLEAR     44  31  60 CALM      29.99F
LEWIS AIRPORT* CLEAR     42  39  89 NE6       30.00F
NORTHERLY ISL    N/A     41  39  93 MISG        N/A
$$

WIZ051-052-058>065-066-070>072-240900-
SOUTHEAST WISCONSIN

CITY           SKY/WX    TMP DP  RH WIND       PRES   REMARKS
MILWAUKEE      PTCLDY    40  35  83 N8        30.03F
KENOSHA*       CLEAR     35  33  92 NE5       30.02F WCI  31
RACINE*        CLEAR     39  35  86 N9        30.04F
WAUKESHA       CLEAR     34  32  93 NE3       30.03F
WEST BEND      CLEAR     36  32  87 NE3       30.03F
$$

INZ001>003-010>013-019-020-240900-
NORTHWEST INDIANA

CITY           SKY/WX    TMP DP  RH WIND       PRES   REMARKS
GARY*          PTCLDY    44  42  91 NE5       30.03S
MICHIGAN CITY* NOT AVBL
RENSSELAER*    NOT AVBL
VALPARAISO     CLEAR     46  32  58 NE3       30.01F
$$

LMZ740>746-240900-
SOUTHERN LAKE MICHIGAN

STATION/POSITION TIME  SKY/WX   TEMP WIND        PRES    VSBY
                                AIR  DIR/SP/G
                 (UTC)          (F)  (DEG/KT/KT) (MB)    (MI)
HARRISON CRIB    0730            42  360/  7/  8   N/A
BURNHAM HARBOR   0800            42  350/  6/ 11   N/A
CALUMET HARBOR   0748            43  350/  5/  6 1015.8F
BURNS HARBOR     0740            45   30/  5/  7 1016.9F
MICHIGAN CITY    0740            46   30/  4/  5   N/A
$$

ABBREVIATIONS USED IN REMARKS
   TC - TEMPERATURE IN CELSIUS
  WCI - WIND CHILL INDEX
   HX - HEAT INDEX
  VSB - VISIBILITY
$$




USA.gov is the U.S. government's official web portal to all federal, state and local government web resources and services.